Sitka, AK

11:05 PM AKDT on June 27, 2017 (GMT -0800)
Sitka Rocky Gutierrez

Weather History for PASI - December, 2012

Change the Weather History Date:

Sunday, December 30, 2012

  Actual Average Record
Temperature  
Mean Temperature 42 °F -  
Max Temperature 45 °F 39 °F 52 °F (2001)
Min Temperature 39 °F 31 °F 3 °F (1949)
Degree Days  
Heating Degree Days 23    
Moisture  
Dew Point 37 °F    
Average Humidity 78    
Maximum Humidity 97    
Minimum Humidity 68    
Precipitation  
Precipitation 0.24 in - - ()
Sea Level Pressure  
Sea Level Pressure 29.77 in    
Wind  
Wind Speed 18 mph (ESE)    
Max Wind Speed 22 mph    
Max Gust Speed 30 mph    
Visibility 9 miles    
Events Rain    
Averages and records for this station are not official NWS values.
T = Trace of Precipitation, MM = Missing Value Source: NWS Daily Summary

Daily Weather History Graph

Daily Weather History Graph

Search for Another Location

Airport or City:

Trip Planner

Search our weather history database for the weather conditions in past years. The results will help you decide how hot, cold, wet, or windy it might be!

Date:

Astronomy

Dec. 30, 2012 Rise Set
Actual Time 8:40 AM AKST 3:28 PM AKST
Civil Twilight 7:51 AM AKST 4:17 PM AKST
Nautical Twilight 7:00 AM AKST 5:08 PM AKST
Astronomical Twilight 6:13 AM AKST 5:55 PM AKST
Moon 6:44 PM AKST (12/30) 9:20 AM AKST (12/30)
Length of Visible Light 8h 26m
Length of Day
6h 48m
Waning Gibbous, 94% of the Moon is Illuminated
Dec 30
Waning Gibbous
Jan 4
Last Quarter
Jan 11
New
Jan 18
First Quarter
Jan 26
Full

Hourly Weather History & Observations

Time (AKST) Temp. Windchill Dew Point Humidity Pressure Visibility Wind Dir Wind Speed Gust Speed Precip Events Conditions
12:53 AM 45.0 °F 37.1 °F 35.1 °F 68% 29.86 in 10.0 mi ESE 19.6 mph 27.6 mph 0.00 in   Overcast
1:53 AM 45.0 °F 36.9 °F 36.0 °F 71% 29.83 in 10.0 mi East 20.7 mph 29.9 mph 0.00 in Rain Light Rain
2:53 AM 45.0 °F 37.4 °F 36.0 °F 71% 29.81 in 10.0 mi ESE 18.4 mph 27.6 mph 0.00 in Rain Light Rain
3:53 AM 45.0 °F 37.1 °F 35.1 °F 68% 29.81 in 10.0 mi ESE 19.6 mph 26.5 mph 0.00 in Rain Light Rain
4:53 AM 45.0 °F 36.9 °F 35.1 °F 68% 29.81 in 10.0 mi ESE 20.7 mph 27.6 mph 0.00 in Rain Light Rain
5:53 AM 44.1 °F 35.4 °F 36.0 °F 73% 29.79 in 7.0 mi ESE 21.9 mph - 0.01 in Rain Light Rain
6:53 AM 44.1 °F 36.5 °F 36.0 °F 73% 29.79 in 7.0 mi ESE 17.3 mph 26.5 mph 0.00 in Rain Light Rain
7:53 AM 43.0 °F 34.5 °F 37.0 °F 80% 29.78 in 7.0 mi ESE 19.6 mph 25.3 mph 0.02 in Rain Light Rain
8:53 AM 42.1 °F 33.1 °F 37.0 °F 82% 29.80 in 6.0 mi ESE 20.7 mph 26.5 mph 0.02 in Rain Light Rain
9:53 AM 43.0 °F 34.8 °F 37.0 °F 80% 29.80 in 6.0 mi ESE 18.4 mph - 0.02 in Rain Light Rain
10:53 AM 43.0 °F 34.0 °F 37.0 °F 80% 29.79 in 7.0 mi ESE 21.9 mph 27.6 mph 0.02 in Rain Light Rain
11:53 AM 43.0 °F 34.2 °F 37.0 °F 80% 29.78 in 10.0 mi ESE 20.7 mph 27.6 mph 0.02 in Rain Light Rain
12:53 PM 43.0 °F 35.4 °F 37.0 °F 80% 29.77 in 8.0 mi ESE 16.1 mph 23.0 mph 0.00 in Rain Light Rain
1:53 PM 43.0 °F 34.8 °F 37.0 °F 80% 29.75 in 10.0 mi ESE 18.4 mph 24.2 mph 0.01 in Rain Light Rain
2:53 PM 44.1 °F 36.8 °F 35.1 °F 71% 29.74 in 10.0 mi ESE 16.1 mph 26.5 mph 0.00 in Rain Light Rain
3:53 PM 43.0 °F 35.7 °F 36.0 °F 76% 29.74 in 10.0 mi ESE 15.0 mph 23.0 mph 0.00 in Rain Light Rain
4:53 PM 42.1 °F 33.9 °F 37.0 °F 82% 29.72 in 10.0 mi ESE 17.3 mph - 0.02 in Rain Light Rain
5:53 PM 43.0 °F 35.1 °F 36.0 °F 76% 29.71 in 10.0 mi ESE 17.3 mph - 0.01 in Rain Light Rain
6:53 PM 42.1 °F 35.2 °F 37.0 °F 82% 29.70 in 10.0 mi ESE 12.7 mph - 0.02 in Rain Light Rain
7:53 PM 43.0 °F 36.8 °F 36.0 °F 76% 29.70 in 10.0 mi ESE 11.5 mph - 0.01 in Rain Light Rain
8:53 PM 41.0 °F 35.8 °F 37.0 °F 86% 29.70 in 10.0 mi East 8.1 mph - 0.02 in Rain Light Rain
9:53 PM 41.0 °F 36.4 °F 37.0 °F 86% 29.71 in 10.0 mi East 6.9 mph - 0.01 in Rain Light Rain
10:53 PM 39.9 °F 35.8 °F 39.0 °F 97% 29.73 in 10.0 mi NNW 5.8 mph - 0.01 in Rain Light Rain
11:53 PM 39.9 °F 34.5 °F 39.0 °F 97% 29.75 in 8.0 mi NW 8.1 mph - 0.02 in Rain Light Rain